Probability
0 0 0 0 0 0 0 0 0 0 0 0 0 0 0 0 0 0 0 1 3 2 2 6 19 41 58 65 74 84 86 77 62 52 60 80 94 98
0 0 0 0 0 0 0 0 0 0 0 0 0 0 0 0 0 0 0 0 1 1 2 3 8 20 32 40 49 62 70 69 64 63 71 86 95 96
0 0 0 0 0 0 0 0 0 0 0 0 0 0 0 0 0 0 0 0 0 1 1 1 0 2 6 11 18 30 41 49 56 66 80 89 93 93
0 0 0 0 0 0 0 0 0 0 0 0 0 0 0 0 0 0 0 0 0 0 0 0 0 0 0 0 3 10 18 24 33 49 67 80 86 88
0 0 0 0 0 0 0 0 0 0 0 0 0 0 0 0 0 0 0 0 0 0 0 0 0 0 0 0 0 2 5 7 12 22 37 53 63 66
0 0 0 0 0 0 0 0 0 0 0 0 0 0 0 0 0 0 0 0 0 0 0 0 0 0 0 0 0 0 1 1 2 5 12 19 25 29
0 0 0 0 0 0 0 0 0 0 0 0 0 0 0 0 0 0 0 0 0 0 0 0 0 0 0 0 0 0 0 0 1 1 2 2 3 4
0 0 0 0 0 0 0 0 0 0 0 0 0 0 0 0 0 0 0 0 0 0 0 0 0 0 0 0 0 0 0 0 0 0 0 0 0 0
0 0 0 0 0 0 0 0 0 0 0 0 0 0 0 0 0 0 0 0 0 0 0 0 0 0 0 0 0 0 0 0 0 0 0 0 0 0
0 0 0 0 0 0 0 0 0 0 0 0 0 0 0 0 0 0 0 0 0 0 0 0 0 0 0 0 0 0 0 0 0 0 0 0 0 0
0 0 0 0 0 0 0 0 0 0 0 0 0 0 0 0 0 0 0 0 0 0 0 0 0 0 0 0 0 0 0 0 0 0 0 0 0 0
0 0 0 0 0 0 0 0 0 0 0 0 0 0 0 0 0 0 0 0 0 0 0 0 0 0 0 0 0 0 0 0 0 0 0 0 0 0
0 0 0 0 0 0 0 0 0 0 0 0 0 0 0 0 0 0 0 0 0 0 0 0 0 0 0 0 0 0 0 0 0 0 0 0 0 0
0 0 0 0 0 0 0 0 0 0 0 0 0 0 0 0 0 0 0 0 0 0 0 0 0 0 0 0 0 0 0 0 0 0 0 0 0 0
0 0 0 0 0 0 0 0 0 0 0 0 0 0 0 0 0 0 0 0 0 0 0 0 0 0 0 0 0 0 0 0 0 0 0 0 0 0
0 0 0 0 0 0 0 0 0 0 0 0 0 0 0 0 0 0 0 0 0 0 0 0 0 0 0 0 0 0 0 0 0 0 0 0 0 0
0 0 0 0 0 0 0 0 0 0 0 0 0 0 0 0 0 0 0 0 0 0 0 0 0 0 0 0 0 0 0 0 0 0 0 0 0 0
0 0 0 0 0 0 0 0 0 0 0 0 0 0 0 0 0 0 0 0 0 0 0 0 0 0 0 0 0 0 0 0 0 0 0 0 0 0
0 0 0 0 0 0 0 0 0 0 0 0 0 0 0 0 0 0 0 0 0 0 0 0 0 0 0 0 0 0 0 0 0 0 0 0 0 0
0 0 0 0 0 0 0 0 0 0 0 0 0 0 0 0 0 0 0 0 0 0 0 0 0 0 0 0 0 0 0 0 0 0 0 0 0 0
0 0 0 0 0 0 0 0 0 0 0 0 0 0 0 0 0 0 0 0 0 0 0 0 0 0 0 0 0 0 0 0 0 0 0 0 0 0
0 0 0 0 0 0 0 0 0 0 0 0 0 0 0 0 0 0 0 0 0 0 0 0 0 0 0 0 0 0 0 0 0 0 0 0 0 0
0 0 0 0 0 0 0 0 0 0 0 0 0 0 0 0 0 0 0 0 0 0 0 0 0 0 0 0 0 0 0 0 0 0 0 0 0 0
Wind_Speed
11 11 9 7 7 8 8 9 9 12 11 7 5 4 6 6 9 9 9 10 13 14 13 13 14 16 18 19 21 23 24 22 21 21 20 19 19 18
10 10 10 7 7 8 8 8 9 10 11 6 6 9 10 10 13 11 11 14 11 12 13 12 13 14 15 18 19 20 22 23 23 23 22 21 19 18
11 10 11 10 8 8 8 8 8 9 12 10 8 8 9 8 8 8 10 8 6 10 12 12 12 12 13 15 17 19 20 22 23 24 24 22 21 20
11 10 10 9 10 8 7 8 8 8 10 12 8 7 8 7 6 8 10 8 5 7 10 11 12 12 12 13 15 17 19 20 22 23 24 24 22 22
8 8 9 10 10 8 8 7 6 7 7 8 8 5 5 5 5 7 11 8 5 5 8 10 11 11 12 13 14 15 17 20 22 23 23 24 24 24
7 8 8 10 12 11 8 9 8 8 7 6 6 5 4 4 3 4 8 6 4 2 3 5 8 11 12 13 14 15 16 18 21 22 22 22 24 26
8 9 10 15 20 16 11 11 10 8 7 6 6 5 3 2 2 2 6 5 3 2 2 3 4 4 6 10 12 14 15 17 18 19 20 23 25 26
10 10 10 11 18 21 22 21 18 13 11 8 6 6 5 4 3 3 4 4 3 2 3 2 2 3 4 5 10 14 15 16 16 18 21 23 25 26
10 10 11 13 13 9 15 18 17 21 20 12 9 9 7 7 6 5 4 4 2 2 3 2 2 2 2 3 12 15 16 17 19 22 25 26 27 28
12 11 10 12 14 14 11 10 10 12 15 11 9 9 10 9 7 6 5 5 2 1 2 3 2 3 3 3 11 16 20 23 27 30 32 33 32 32
12 14 14 12 24 24 15 13 12 11 16 21 20 17 18 18 13 4 3 4 2 1 2 3 3 5 5 5 10 22 26 30 33 35 37 36 36 31
9 12 19 21 25 25 14 13 14 13 13 14 14 15 13 13 17 8 4 2 1 2 0 3 4 5 6 6 8 11 18 28 33 34 34 34 31 19
9 9 11 24 25 25 20 14 18 15 12 12 11 11 10 10 10 9 7 3 1 1 1 3 4 4 7 6 6 8 11 13 17 21 25 28 25 19
9 8 11 23 23 24 19 22 24 18 10 10 11 11 12 12 11 11 10 6 4 2 1 2 4 6 11 10 8 7 9 9 11 12 12 20 21 22
8 17 20 22 20 16 23 25 19 12 11 11 12 11 11 11 11 10 10 7 7 9 7 3 5 7 9 13 11 8 8 8 8 10 11 10 10 10
8 13 18 19 16 17 17 15 12 12 12 10 11 10 10 11 11 10 9 7 6 9 12 12 7 9 11 12 15 14 9 8 7 9 11 10 8 8
6 6 7 9 10 10 10 11 11 11 11 11 11 11 11 12 11 10 10 9 8 7 9 11 15 16 15 12 13 12 12 12 10 10 11 11 8 7
8 5 6 7 8 9 9 9 10 10 10 10 10 11 11 11 11 10 10 10 10 9 7 5 8 12 13 16 16 11 12 12 10 9 9 11 9 5
4 3 4 4 5 6 6 6 7 8 8 8 9 9 10 10 10 11 11 10 10 10 9 8 5 7 14 11 10 13 9 11 11 9 7 6 7 5
2 2 3 3 3 4 4 4 5 6 6 7 7 8 9 9 9 10 10 11 10 10 11 12 11 9 9 11 8 7 12 9 9 9 8 7 7 7
3 3 3 3 3 3 3 3 4 4 5 5 6 7 8 8 9 9 9 15 12 11 12 11 11 13 9 10 12 9 9 13 10 6 6 6 5 3
4 4 4 3 3 2 2 2 3 3 4 4 5 5 6 6 8 9 9 9 9 10 11 9 10 10 10 13 14 11 8 8 12 16 12 8 4 4
5 5 4 4 3 2 2 2 2 2 2 3 3 4 5 5 5 6 7 8 8 9 9 9 9 10 11 11 11 10 10 9 7 8 8 11 11 9
Wind_Direction
295 295 291 288 288 286 282 278 283 291 295 294 292 314 335 326 328 330 316 277 231 206 199 200 204 204 204 204 200 196 192 187 183 181 182 185 184 180
296 294 293 287 288 284 280 277 274 278 280 284 294 307 311 308 319 323 312 300 254 210 194 192 197 201 202 201 199 197 194 187 183 182 182 182 181 175
299 297 296 295 292 286 281 277 272 271 277 285 284 289 292 302 311 312 305 297 268 220 196 189 191 196 199 199 196 195 193 189 185 182 182 181 179 174
301 307 311 312 307 298 289 280 277 272 274 282 284 283 282 289 297 301 304 297 274 227 202 191 190 192 195 197 195 193 190 187 184 183 182 180 179 171
318 328 331 337 337 329 321 316 304 295 285 284 285 275 272 275 290 297 295 286 271 228 201 193 190 191 195 197 195 193 190 187 185 184 184 180 173 168
346 345 350 359 355 348 349 351 343 333 323 306 294 277 260 250 246 269 277 277 264 221 181 174 184 191 196 197 196 194 191 189 188 187 183 174 166 163
360 357 4 18 12 7 10 8 359 354 348 335 321 303 281 249 226 235 261 273 262 212 157 159 167 177 187 198 197 194 190 189 189 184 176 167 159 155
7 360 1 15 16 11 12 15 13 10 5 356 342 330 326 327 314 265 259 255 238 209 145 138 143 162 171 183 189 186 185 182 176 168 161 154 148 143
8 3 8 7 21 8 5 12 10 11 13 7 351 344 336 336 324 299 272 261 235 202 134 121 107 127 125 173 176 173 169 161 152 144 138 133 129 127
8 3 7 1 16 20 2 3 8 5 4 4 356 349 343 338 318 287 283 288 285 355 94 114 92 84 74 104 150 149 144 138 133 129 125 121 118 117
9 7 10 8 13 21 10 2 5 3 0 2 3 3 360 356 355 321 268 235 201 100 39 104 106 85 64 66 110 124 126 125 124 123 122 120 118 115
7 3 7 16 13 19 15 4 8 2 354 352 356 357 356 355 3 360 329 276 195 140 111 110 123 109 81 48 78 102 111 115 117 119 120 120 119 116
9 4 3 14 14 17 18 13 12 9 355 353 351 353 356 358 356 350 339 310 250 144 172 118 117 99 109 104 63 69 96 107 109 113 114 116 117 117
5 3 7 17 16 15 17 15 14 13 2 359 359 0 358 355 349 344 343 355 29 65 50 101 128 144 131 121 104 78 73 83 101 106 107 110 108 110
8 16 17 19 16 12 13 16 13 9 7 4 1 358 352 348 350 350 353 7 42 44 34 41 122 133 130 128 124 120 97 72 80 100 101 101 105 108
12 9 15 16 18 14 13 11 10 10 11 4 357 352 353 358 5 4 2 4 41 45 37 44 64 105 115 116 123 123 115 112 102 98 98 90 83 84
16 7 9 10 11 11 9 9 8 8 9 6 2 359 1 5 9 9 14 26 47 56 58 60 66 70 70 94 111 112 113 111 114 113 106 96 80 84
21 3 4 6 8 7 6 4 6 8 6 6 7 4 4 6 10 14 20 31 43 45 50 65 103 102 83 53 46 100 108 111 110 104 107 108 99 78
13 341 341 344 347 351 353 354 355 355 358 4 8 7 6 9 14 19 22 29 36 40 37 31 34 114 111 97 43 40 93 109 109 98 85 97 112 109
314 306 311 319 327 334 341 345 345 351 357 1 5 8 10 14 19 21 26 31 35 41 45 43 43 61 96 108 103 63 59 84 101 102 100 95 89 92
291 289 289 297 305 317 326 334 341 347 353 354 2 7 11 18 24 25 29 35 42 43 49 47 48 61 78 89 92 82 64 67 81 96 107 104 99 89
274 272 273 274 280 289 303 320 336 346 353 356 357 2 8 19 25 29 31 36 40 46 53 52 51 61 69 87 95 94 85 72 75 78 76 87 116 130
272 264 260 261 259 256 258 280 306 326 341 350 355 359 6 16 20 29 34 39 44 48 54 58 60 66 73 82 90 92 88 83 79 72 59 62 77 86